Location: Unspecified
(30.8073°N, 0.0000°E)
Time: 23:05:36
(UTC+00:00)

AO-85 - Visible Passes

Search period start: 19 August 2019 00:00
Search period end: 29 August 2019 00:00
Orbit: 506 x 778 km, 64.8° (Epoch: 14 August)

Date Brightness Start Highest point End Pass type
(mag) Time Alt. Az. Time Alt. Az. Time Alt. Az.
19 Aug ? 01:21:27 12° NNE 01:21:27 12° NNE 01:21:53 10° NNE visible
19 Aug ? 02:59:04 12° NNW 02:59:04 12° NNW 02:59:55 10° NNW visible
20 Aug ? 01:45:31 14° N 01:45:31 14° N 01:46:18 10° NNE visible
21 Aug ? 02:09:33 11° NNW 02:09:33 11° NNW 02:09:57 10° N visible
